Location: Stuttgart
(48.7824°N, 9.1964°E)
Time: 02:13:32
(UTC+01:00)

ISS - Visible Passes

Search period start: 06 December 2023 00:00
Search period end: 16 December 2023 00:00
Orbit: 415 x 417 km, 51.6° (Epoch: 05 December)

Date Brightness Start Highest point End Pass type
(mag) Time Alt. Az. Time Alt. Az. Time Alt. Az.
06 Dec -1.3 17:28:20 10° W 17:31:08 25° SW 17:33:56 10° SSE visible
08 Dec -0.2 17:29:18 10° WSW 17:30:24 11° SW 17:31:30 10° SSW visible
15 Dec -0.3 06:59:46 10° SSE 07:01:13 12° SE 07:02:39 10° ESE visible
